| time (UTC) | temp C | wind direction | speed KPH | gust KPH | rain 1hr cm | rain 24hr cm | rain mn cm | humidity % | barometer mb |
| 20260505093521 | 9 | 294 | 0.0 | 3.2 | 0.00 | 0.00 | 0.00 | 53 | 1012.7 |
| 20260505093018 | 9 | 242 | 3.2 | 3.2 | 0.00 | 0.00 | 0.00 | 53 | 1012.5 |
| 20260505092515 | 9 | 315 | 0.0 | 4.8 | 0.00 | 0.00 | 0.00 | 54 | 1012.8 |
| 20260505092014 | 8 | 266 | 1.6 | 3.2 | 0.00 | 0.00 | 0.00 | 54 | 1012.6 |
| 20260505091510 | 8 | 262 | 3.2 | 3.2 | 0.00 | 0.00 | 0.00 | 56 | 1012.5 |
| 20260505091009 | 8 | 283 | 1.6 | 3.2 | 0.00 | 0.00 | 0.00 | 58 | 1012.5 |
| 20260505090506 | 8 | 269 | 1.6 | 3.2 | 0.00 | 0.00 | 0.00 | 56 | 1012.3 |
| 20260505090004 | 8 | 235 | 3.2 | 3.2 | 0.00 | 0.00 | 0.00 | 56 | 1012.3 |
| 20260505085501 | 8 | 277 | 1.6 | 3.2 | 0.00 | 0.00 | 0.00 | 56 | 1012.3 |
| 20260505084959 | 8 | 279 | 3.2 | 3.2 | 0.00 | 0.00 | 0.00 | 56 | 1012.3 |
| 20260505084458 | 8 | 271 | 1.6 | 3.2 | 0.00 | 0.00 | 0.00 | 57 | 1012.5 |
| 20260505083955 | 8 | 269 | 0.0 | 3.2 | 0.00 | 0.00 | 0.00 | 59 | 1012.3 |
| 20260505083452 | 9 | 289 | 1.6 | 3.2 | 0.00 | 0.00 | 0.00 | 54 | 1012.3 |
| 20260505082948 | 9 | 267 | 1.6 | 3.2 | 0.00 | 0.00 | 0.00 | 55 | 1012.6 |
| 20260505082444 | 9 | 279 | 1.6 | 3.2 | 0.00 | 0.00 | 0.00 | 55 | 1012.5 |
| 20260505081941 | 9 | 262 | 1.6 | 3.2 | 0.00 | 0.00 | 0.00 | 57 | 1012.7 |
| 20260505081438 | 10 | 282 | 0.0 | 3.2 | 0.00 | 0.00 | 0.00 | 55 | 1012.6 |
| 20260505080934 | 10 | 257 | 6.4 | 6.4 | 0.00 | 0.00 | 0.00 | 53 | 1012.7 |
| 20260505080431 | 10 | 264 | 6.4 | 6.4 | 0.00 | 0.00 | 0.00 | 52 | 1012.6 |
| 20260505075926 | 11 | 258 | 3.2 | 4.8 | 0.00 | 0.00 | 0.00 | 45 | 1012.5 |
| 20260505075423 | 11 | 286 | 0.0 | 3.2 | 0.00 | 0.00 | 0.00 | 44 | 1012.5 |
| 20260505074921 | 10 | 334 | 1.6 | 3.2 | 0.00 | 0.00 | 0.00 | 44 | 1012.6 |
| 20260505074418 | 10 | 96 | 0.0 | 3.2 | 0.00 | 0.00 | 0.00 | 47 | 1012.5 |
| 20260505073915 | 10 | 296 | 0.0 | 3.2 | 0.00 | 0.00 | 0.00 | 47 | 1012.6 |
| 20260505073413 | 10 | 299 | 3.2 | 3.2 | 0.00 | 0.00 | 0.00 | 50 | 1012.7 |
| 20260505072910 | 11 | 272 | 1.6 | 6.4 | 0.00 | 0.00 | 0.00 | 45 | 1012.6 |
| 20260505072405 | 10 | 268 | 3.2 | 3.2 | 0.00 | 0.00 | 0.00 | 48 | 1012.7 |
| 20260505071902 | 10 | 257 | 4.8 | 4.8 | 0.00 | 0.00 | 0.00 | 45 | 1012.5 |
| 20260505071358 | 10 | 217 | 4.8 | 6.4 | 0.00 | 0.00 | 0.00 | 47 | 1012.6 |
| 20260505070856 | 9 | 283 | 0.0 | 3.2 | 0.00 | 0.00 | 0.00 | 51 | 1012.7 |
| 20260505070352 | 10 | 269 | 6.4 | 6.4 | 0.00 | 0.00 | 0.00 | 51 | 1012.7 |
| 20260505065848 | 10 | 269 | 3.2 | 3.2 | 0.00 | 0.00 | 0.00 | 52 | 1012.7 |
| 20260505065345 | 10 | 267 | 1.6 | 4.8 | 0.00 | 0.00 | 0.00 | 50 | 1012.7 |
| 20260505064842 | 10 | 308 | 3.2 | 3.2 | 0.00 | 0.00 | 0.00 | 49 | 1012.5 |
| 20260505064339 | 10 | 284 | 3.2 | 4.8 | 0.00 | 0.00 | 0.00 | 51 | 1012.7 |
| 20260505063837 | 10 | 273 | 4.8 | 6.4 | 0.00 | 0.00 | 0.00 | 45 | 1012.6 |
| 20260505063333 | 10 | 276 | 3.2 | 3.2 | 0.00 | 0.00 | 0.00 | 49 | 1012.5 |
| 20260505062830 | 10 | 276 | 1.6 | 3.2 | 0.00 | 0.00 | 0.00 | 57 | 1012.6 |
| 20260505062327 | 10 | 261 | 1.6 | 1.6 | 0.00 | 0.00 | 0.00 | 56 | 1012.6 |
| 20260505061824 | 10 | 277 | 0.0 | 1.6 | 0.00 | 0.00 | 0.00 | 57 | 1012.2 |
| 20260505061322 | 10 | 287 | 1.6 | 3.2 | 0.00 | 0.00 | 0.00 | 58 | 1012.5 |
| 20260505060819 | 10 | 280 | 1.6 | 1.6 | 0.00 | 0.00 | 0.00 | 58 | 1012.6 |
| 20260505060316 | 10 | 283 | 0.0 | 3.2 | 0.00 | 0.00 | 0.00 | 56 | 1012.5 |
| 20260505055812 | 10 | 277 | 1.6 | 3.2 | 0.00 | 0.00 | 0.00 | 59 | 1012.5 |
| 20260505055308 | 10 | 257 | 3.2 | 3.2 | 0.00 | 0.00 | 0.00 | 58 | 1012.5 |
| 20260505054806 | 10 | 258 | 3.2 | 3.2 | 0.00 | 0.00 | 0.00 | 57 | 1012.5 |
| 20260505054303 | 10 | 255 | 0.0 | 1.6 | 0.00 | 0.00 | 0.00 | 55 | 1012.5 |
| 20260505053801 | 10 | 290 | 1.6 | 1.6 | 0.00 | 0.00 | 0.00 | 54 | 1012.5 |
| 20260505053257 | 10 | 291 | 0.0 | 3.2 | 0.00 | 0.00 | 0.00 | 54 | 1012.6 |
| 20260505052754 | 10 | 276 | 1.6 | 3.2 | 0.00 | 0.00 | 0.00 | 55 | 1012.5 |
| 20260505052251 | 10 | 293 | 1.6 | 1.6 | 0.00 | 0.00 | 0.00 | 54 | 1012.5 |
| 20260505051748 | 10 | 277 | 1.6 | 3.2 | 0.00 | 0.00 | 0.00 | 52 | 1012.5 |
| 20260505051246 | 11 | 285 | 1.6 | 1.6 | 0.00 | 0.00 | 0.00 | 54 | 1012.6 |
| 20260505050744 | 11 | 286 | 1.6 | 3.2 | 0.00 | 0.00 | 0.00 | 54 | 1012.5 |
| 20260505050242 | 11 | 269 | 0.0 | 3.2 | 0.00 | 0.00 | 0.00 | 51 | 1012.5 |
| 20260505041712 | 10 | 269 | 0.0 | 4.8 | 0.00 | 0.00 | 0.00 | 58 | 1012.5 |
| 20260505041209 | 10 | 269 | 3.2 | 3.2 | 0.00 | 0.00 | 0.00 | 62 | 1012.5 |
| 20260505040706 | 11 | 232 | 0.0 | 3.2 | 0.00 | 0.00 | 0.00 | 60 | 1012.6 |
| 20260505040203 | 12 | 243 | 6.4 | 14.5 | 0.00 | 0.00 | 0.00 | 54 | 1012.9 |
| 20260505035700 | 12 | 280 | 0.0 | 3.2 | 0.00 | 0.00 | 0.00 | 45 | 1012.2 |
| 20260505035156 | 12 | 246 | 3.2 | 3.2 | 0.00 | 0.00 | 0.00 | 44 | 1012.2 |
| 20260505034652 | 12 | 260 | 3.2 | 3.2 | 0.00 | 0.00 | 0.00 | 44 | 1012.0 |
| 20260505034150 | 12 | 231 | 1.6 | 4.8 | 0.00 | 0.00 | 0.00 | 44 | 1011.8 |
| 20260505033646 | 12 | 262 | 1.6 | 3.2 | 0.00 | 0.00 | 0.00 | 44 | 1011.6 |
| 20260505033145 | 12 | 246 | 0.0 | 3.2 | 0.00 | 0.00 | 0.00 | 44 | 1011.7 |
| 20260505032642 | 12 | 258 | 3.2 | 3.2 | 0.00 | 0.00 | 0.00 | 43 | 1011.6 |
| 20260505032138 | 12 | 285 | 1.6 | 3.2 | 0.00 | 0.00 | 0.00 | 45 | 1011.6 |
| 20260505031636 | 12 | 251 | 3.2 | 3.2 | 0.00 | 0.00 | 0.00 | 43 | 1011.2 |
| 20260505031132 | 12 | 242 | 1.6 | 3.2 | 0.00 | 0.00 | 0.00 | 44 | 1011.1 |
| 20260505030629 | 12 | 267 | 1.6 | 3.2 | 0.00 | 0.00 | 0.00 | 44 | 1011.0 |
| 20260505030125 | 12 | 282 | 1.6 | 3.2 | 0.00 | 0.00 | 0.00 | 44 | 1010.9 |
| 20260505025621 | 12 | 235 | 1.6 | 4.8 | 0.00 | 0.00 | 0.00 | 42 | 1011.0 |
| 20260505025120 | 13 | 289 | 3.2 | 3.2 | 0.00 | 0.00 | 0.00 | 44 | 1010.8 |
| 20260505024617 | 13 | 253 | 1.6 | 3.2 | 0.00 | 0.00 | 0.00 | 40 | 1010.9 |
| 20260505024114 | 13 | 250 | 0.0 | 3.2 | 0.00 | 0.00 | 0.00 | 42 | 1010.9 |
| 20260505023611 | 13 | 257 | 6.4 | 8.0 | 0.00 | 0.00 | 0.00 | 39 | 1010.8 |
| 20260505023108 | 13 | 271 | 3.2 | 6.4 | 0.00 | 0.00 | 0.00 | 38 | 1010.6 |
| 20260505022606 | 13 | 244 | 0.0 | 3.2 | 0.00 | 0.00 | 0.00 | 40 | 1010.6 |
| 20260505022103 | 14 | 274 | 0.0 | 4.8 | 0.00 | 0.00 | 0.00 | 38 | 1010.6 |
| 20260505021559 | 14 | 303 | 6.4 | 6.4 | 0.00 | 0.00 | 0.00 | 38 | 1010.5 |
| 20260505021056 | 14 | 276 | 0.0 | 4.8 | 0.00 | 0.00 | 0.00 | 37 | 1010.5 |
| 20260505020556 | 15 | 274 | 3.2 | 4.8 | 0.00 | 0.00 | 0.00 | 37 | 1010.3 |
| 20260505020053 | 15 | 343 | 1.6 | 6.4 | 0.00 | 0.00 | 0.00 | 37 | 1010.5 |
| 20260505015550 | 15 | 303 | 3.2 | 4.8 | 0.00 | 0.00 | 0.00 | 36 | 1010.1 |
| 20260505015047 | 16 | 339 | 4.8 | 6.4 | 0.00 | 0.00 | 0.00 | 31 | 1010.1 |
| 20260505014544 | 16 | 312 | 3.2 | 4.8 | 0.00 | 0.00 | 0.00 | 32 | 1010.0 |
| 20260505014041 | 16 | 318 | 3.2 | 4.8 | 0.00 | 0.00 | 0.00 | 32 | 1009.7 |
| 20260505013538 | 17 | 292 | 6.4 | 6.4 | 0.00 | 0.00 | 0.00 | 30 | 1009.8 |
| 20260505013035 | 17 | 290 | 3.2 | 6.4 | 0.00 | 0.00 | 0.00 | 29 | 1009.8 |
| 20260505012533 | 17 | 289 | 0.0 | 4.8 | 0.00 | 0.00 | 0.00 | 32 | 1009.7 |
| 20260505012030 | 17 | 248 | 4.8 | 4.8 | 0.00 | 0.00 | 0.00 | 31 | 1009.9 |
| 20260505011525 | 17 | 308 | 0.0 | 9.7 | 0.00 | 0.00 | 0.00 | 29 | 1010.0 |
| 20260505011023 | 18 | 300 | 3.2 | 6.4 | 0.00 | 0.00 | 0.00 | 28 | 1009.9 |
| 20260505010518 | 18 | 252 | 4.8 | 4.8 | 0.00 | 0.00 | 0.00 | 27 | 1009.9 |
| 20260505010015 | 18 | 280 | 1.6 | 4.8 | 0.00 | 0.00 | 0.00 | 27 | 1010.0 |
| 20260505005511 | 18 | 297 | 4.8 | 6.4 | 0.00 | 0.00 | 0.00 | 26 | 1009.9 |
| 20260505005009 | 18 | 247 | 4.8 | 4.8 | 0.00 | 0.00 | 0.00 | 27 | 1009.9 |
| 20260505004506 | 18 | 298 | 3.2 | 4.8 | 0.00 | 0.00 | 0.00 | 25 | 1010.1 |
| 20260505004003 | 18 | 256 | 4.8 | 4.8 | 0.00 | 0.00 | 0.00 | 26 | 1010.0 |
| 20260505003500 | 18 | 316 | 3.2 | 6.4 | 0.00 | 0.00 | 0.00 | 30 | 1009.9 |
| 20260505002956 | 18 | 320 | 4.8 | 6.4 | 0.00 | 0.00 | 0.00 | 28 | 1010.3 |
| 20260505002452 | 18 | 281 | 1.6 | 3.2 | 0.00 | 0.00 | 0.00 | 32 | 1010.0 |
| 20260505001951 | 17 | 253 | 1.6 | 3.2 | 0.00 | 0.00 | 0.00 | 29 | 1010.3 |
| 20260505001448 | 17 | 238 | 3.2 | 4.8 | 0.00 | 0.00 | 0.00 | 29 | 1010.1 |
| 20260505000945 | 17 | 274 | 3.2 | 3.2 | 0.00 | 0.00 | 0.00 | 31 | 1010.3 |
| 20260505000443 | 17 | 254 | 3.2 | 4.8 | 0.00 | 0.00 | 0.00 | 29 | 1010.4 |
| 20260504235939 | 17 | 304 | 3.2 | 8.0 | 0.00 | 0.00 | 0.00 | 32 | 1010.1 |
| 20260504235437 | 17 | 271 | 0.0 | 3.2 | 0.00 | 0.00 | 0.00 | 29 | 1010.1 |
| 20260504234933 | 18 | 279 | 3.2 | 4.8 | 0.00 | 0.00 | 0.00 | 28 | 1010.1 |
| 20260504234430 | 18 | 297 | 0.0 | 3.2 | 0.00 | 0.00 | 0.00 | 30 | 1010.4 |
| 20260504233927 | 17 | 258 | 3.2 | 6.4 | 0.00 | 0.00 | 0.00 | 29 | 1010.4 |
| 20260504233422 | 18 | 261 | 3.2 | 4.8 | 0.00 | 0.00 | 0.00 | 28 | 1010.5 |
| 20260504232920 | 17 | 297 | 3.2 | 3.2 | 0.00 | 0.00 | 0.00 | 29 | 1010.9 |
| 20260504232417 | 17 | 305 | 3.2 | 4.8 | 0.00 | 0.00 | 0.00 | 30 | 1010.4 |
| 20260504231914 | 17 | 264 | 1.6 | 1.6 | 0.00 | 0.00 | 0.00 | 34 | 1010.6 |
| 20260504231410 | 17 | 265 | 3.2 | 3.2 | 0.00 | 0.00 | 0.00 | 31 | 1010.5 |
| 20260504230906 | 17 | 269 | 1.6 | 6.4 | 0.00 | 0.00 | 0.00 | 30 | 1010.6 |
| 20260504230404 | 17 | 254 | 4.8 | 6.4 | 0.00 | 0.00 | 0.00 | 29 | 1010.8 |
| 20260504225902 | 17 | 251 | 8.0 | 9.7 | 0.00 | 0.00 | 0.00 | 31 | 1010.8 |
| 20260504225358 | 17 | 260 | 3.2 | 8.0 | 0.00 | 0.00 | 0.00 | 29 | 1010.6 |
| 20260504224856 | 18 | 256 | 1.6 | 6.4 | 0.00 | 0.00 | 0.00 | 28 | 1010.6 |
| 20260504224352 | 18 | 248 | 4.8 | 6.4 | 0.00 | 0.00 | 0.00 | 31 | 1010.5 |
| 20260504223849 | 17 | 255 | 4.8 | 8.0 | 0.00 | 0.00 | 0.00 | 30 | 1010.9 |
| 20260504223345 | 18 | 244 | 6.4 | 8.0 | 0.00 | 0.00 | 0.00 | 30 | 1010.8 |
| 20260504222841 | 18 | 234 | 4.8 | 6.4 | 0.00 | 0.00 | 0.00 | 32 | 1011.0 |
| 20260504222338 | 18 | 296 | 4.8 | 6.4 | 0.00 | 0.00 | 0.00 | 29 | 1011.1 |
| 20260504221837 | 18 | 232 | 0.0 | 4.8 | 0.00 | 0.00 | 0.00 | 31 | 1011.4 |
| 20260504221333 | 18 | 252 | 6.4 | 6.4 | 0.00 | 0.00 | 0.00 | 31 | 1011.1 |
| 20260504220830 | 17 | 271 | 3.2 | 3.2 | 0.00 | 0.00 | 0.00 | 31 | 1011.5 |
| 20260504220327 | 17 | 265 | 4.8 | 9.7 | 0.00 | 0.00 | 0.00 | 33 | 1011.6 |
| 20260504215824 | 17 | 249 | 8.0 | 9.7 | 0.00 | 0.00 | 0.00 | 30 | 1012.0 |
| 20260504215321 | 18 | 248 | 0.0 | 6.4 | 0.00 | 0.00 | 0.00 | 30 | 1011.8 |
| 20260504214817 | 18 | 279 | 0.0 | 3.2 | 0.00 | 0.00 | 0.00 | 31 | 1012.1 |
| 20260504214314 | 17 | 180 | 3.2 | 9.7 | 0.00 | 0.00 | 0.00 | 29 | 1012.0 |
| 20260504213810 | 18 | 254 | 6.4 | 9.7 | 0.00 | 0.00 | 0.00 | 32 | 1012.1 |
| 20260504213306 | 17 | 263 | 4.8 | 6.4 | 0.00 | 0.00 | 0.00 | 31 | 1012.3 |
| 20260504212804 | 17 | 10 | 1.6 | 6.4 | 0.00 | 0.00 | 0.00 | 32 | 1012.2 |
| 20260504212300 | 16 | 242 | 3.2 | 8.0 | 0.00 | 0.00 | 0.00 | 33 | 1012.2 |
| 20260504211758 | 16 | 311 | 3.2 | 4.8 | 0.00 | 0.00 | 0.00 | 37 | 1012.2 |
| 20260504211253 | 15 | 247 | 3.2 | 4.8 | 0.00 | 0.00 | 0.00 | 39 | 1012.5 |
| 20260504210751 | 14 | 224 | 3.2 | 3.2 | 0.00 | 0.00 | 0.00 | 42 | 1012.7 |
| 20260504210248 | 13 | 234 | 1.6 | 3.2 | 0.00 | 0.00 | 0.00 | 45 | 1012.9 |
| 20260504205745 | 13 | 315 | 0.0 | 8.0 | 0.00 | 0.00 | 0.00 | 44 | 1013.4 |
| 20260504205243 | 15 | 188 | 3.2 | 8.0 | 0.00 | 0.00 | 0.00 | 41 | 1013.7 |
| 20260504204741 | 15 | 301 | 1.6 | 9.7 | 0.00 | 0.00 | 0.00 | 35 | 1013.3 |
| 20260504204239 | 16 | 231 | 4.8 | 8.0 | 0.00 | 0.00 | 0.00 | 32 | 1012.7 |
| 20260504203738 | 17 | 275 | 3.2 | 8.0 | 0.00 | 0.00 | 0.00 | 32 | 1012.5 |
| 20260504203235 | 18 | 300 | 4.8 | 12.9 | 0.00 | 0.00 | 0.00 | 30 | 1012.0 |
| 20260504202735 | 18 | 265 | 6.4 | 11.3 | 0.00 | 0.00 | 0.00 | 30 | 1012.1 |
| 20260504202232 | 18 | 236 | 4.8 | 11.3 | 0.00 | 0.00 | 0.00 | 28 | 1012.0 |
| 20260504201729 | 18 | 73 | 3.2 | 8.0 | 0.00 | 0.00 | 0.00 | 27 | 1012.2 |
| 20260504201227 | 18 | 310 | 3.2 | 4.8 | 0.00 | 0.00 | 0.00 | 31 | 1012.2 |
| 20260504200724 | 17 | 315 | 3.2 | 6.4 | 0.00 | 0.00 | 0.00 | 31 | 1012.1 |
| 20260504200220 | 18 | 294 | 0.0 | 3.2 | 0.00 | 0.00 | 0.00 | 27 | 1011.8 |
| 20260504195717 | 18 | 285 | 3.2 | 4.8 | 0.00 | 0.00 | 0.00 | 27 | 1012.0 |
| 20260504195213 | 20 | 345 | 3.2 | 6.4 | 0.00 | 0.00 | 0.00 | 25 | 1011.8 |
| 20260504194710 | 18 | 240 | 6.4 | 6.4 | 0.00 | 0.00 | 0.00 | 28 | 1012.1 |
| 20260504194206 | 16 | 247 | 4.8 | 4.8 | 0.00 | 0.00 | 0.00 | 27 | 1012.5 |
| 20260504193702 | 16 | 286 | 3.2 | 6.4 | 0.00 | 0.00 | 0.00 | 28 | 1012.5 |
| 20260504193200 | 17 | 266 | 1.6 | 9.7 | 0.00 | 0.00 | 0.00 | 31 | 1012.7 |
| 20260504192658 | 17 | 246 | 1.6 | 4.8 | 0.00 | 0.00 | 0.00 | 32 | 1012.7 |
| 20260504192156 | 17 | 244 | 3.2 | 4.8 | 0.00 | 0.00 | 0.00 | 29 | 1012.3 |
| 20260504191654 | 17 | 253 | 3.2 | 6.4 | 0.00 | 0.00 | 0.00 | 31 | 1012.5 |
| 20260504191150 | 17 | 258 | 3.2 | 3.2 | 0.00 | 0.00 | 0.00 | 31 | 1012.5 |
| 20260504190646 | 17 | 274 | 4.8 | 6.4 | 0.00 | 0.00 | 0.00 | 30 | 1012.7 |
| 20260504190143 | 17 | 282 | 3.2 | 3.2 | 0.00 | 0.00 | 0.00 | 30 | 1012.8 |
| 20260504185639 | 17 | 256 | 8.0 | 8.0 | 0.00 | 0.00 | 0.00 | 31 | 1012.7 |
| 20260504185136 | 17 | 256 | 1.6 | 3.2 | 0.00 | 0.00 | 0.00 | 31 | 1012.8 |
| 20260504184632 | 17 | 305 | 4.8 | 6.4 | 0.00 | 0.00 | 0.00 | 32 | 1012.7 |
| 20260504184127 | 17 | 265 | 4.8 | 4.8 | 0.00 | 0.00 | 0.00 | 32 | 1012.7 |
| 20260504183624 | 17 | 305 | 4.8 | 6.4 | 0.00 | 0.00 | 0.00 | 32 | 1012.9 |
| 20260504183122 | 17 | 323 | 4.8 | 4.8 | 0.00 | 0.00 | 0.00 | 32 | 1012.9 |
| 20260504182620 | 17 | 301 | 3.2 | 6.4 | 0.00 | 0.00 | 0.00 | 30 | 1013.2 |
| 20260504182117 | 17 | 287 | 3.2 | 6.4 | 0.00 | 0.00 | 0.00 | 31 | 1013.3 |
| 20260504181614 | 17 | 259 | 3.2 | 4.8 | 0.00 | 0.00 | 0.00 | 31 | 1013.2 |
| 20260504181111 | 17 | 266 | 6.4 | 6.4 | 0.00 | 0.00 | 0.00 | 30 | 1013.3 |
| 20260504180610 | 16 | 272 | 6.4 | 9.7 | 0.00 | 0.00 | 0.00 | 31 | 1013.3 |
| 20260504180109 | 16 | 275 | 3.2 | 6.4 | 0.00 | 0.00 | 0.00 | 31 | 1013.5 |
| 20260504175606 | 16 | 247 | 6.4 | 6.4 | 0.00 | 0.00 | 0.00 | 34 | 1013.4 |
| 20260504175102 | 16 | 252 | 4.8 | 6.4 | 0.00 | 0.00 | 0.00 | 32 | 1013.5 |
| 20260504174601 | 16 | 273 | 3.2 | 6.4 | 0.00 | 0.00 | 0.00 | 32 | 1013.3 |
| 20260504174057 | 16 | 288 | 4.8 | 6.4 | 0.00 | 0.00 | 0.00 | 32 | 1013.3 |
| 20260504173554 | 15 | 266 | 3.2 | 3.2 | 0.00 | 0.00 | 0.00 | 34 | 1013.3 |
| 20260504173052 | 16 | 251 | 4.8 | 9.7 | 0.00 | 0.00 | 0.00 | 32 | 1013.4 |
| 20260504172547 | 15 | 280 | 4.8 | 6.4 | 0.00 | 0.00 | 0.00 | 33 | 1013.7 |
| 20260504172044 | 15 | 259 | 4.8 | 6.4 | 0.00 | 0.00 | 0.00 | 34 | 1013.7 |
| 20260504171541 | 15 | 238 | 6.4 | 8.0 | 0.00 | 0.00 | 0.00 | 39 | 1013.8 |
| 20260504171038 | 14 | 237 | 4.8 | 6.4 | 0.00 | 0.00 | 0.00 | 38 | 1014.0 |
| 20260504170534 | 14 | 275 | 4.8 | 6.4 | 0.00 | 0.00 | 0.00 | 43 | 1013.9 |
| 20260504150918 | 7 | 263 | 4.8 | 4.8 | 0.00 | 0.00 | 0.00 | 57 | 1014.4 |
| 20260504150414 | 6 | 238 | 3.2 | 4.8 | 0.00 | 0.00 | 0.00 | 57 | 1014.5 |
| 20260504140835 | 3 | 287 | 0.0 | 3.2 | 0.00 | 0.00 | 0.00 | 70 | 1014.8 |
| 20260504140331 | 3 | 302 | 1.6 | 3.2 | 0.00 | 0.00 | 0.00 | 72 | 1014.6 |
| 20260504130759 | 2 | 342 | 0.0 | 4.8 | 0.00 | 0.00 | 0.00 | 71 | 1014.5 |
| 20260504130255 | 2 | 289 | 3.2 | 6.4 | 0.00 | 0.00 | 0.00 | 70 | 1014.4 |
| 20260504120219 | 3 | 238 | 1.6 | 4.8 | 0.00 | 0.00 | 0.00 | 68 | 1014.3 |
| 20260504110647 | 4 | 321 | 3.2 | 4.8 | 0.00 | 0.00 | 0.00 | 63 | 1014.6 |
| 20260504110143 | 5 | 327 | 1.6 | 3.2 | 0.00 | 0.00 | 0.00 | 64 | 1014.6 |
| 20260504100609 | 5 | 281 | 1.6 | 3.2 | 0.00 | 0.00 | 0.00 | 62 | 1014.8 |
| 20260504100107 | 5 | 262 | 1.6 | 3.2 | 0.00 | 0.00 | 0.00 | 61 | 1014.6 |